{"data":{"norad_id":40032,"intl_designator":"2014-033Y","name":"QB50P2","alt_names":[],"object_type":"PAYLOAD","status":"ACTIVE","operator":null,"country":"BEL","launch_date":"2014-06-19","launch_site_code":"DLS","launch_vehicle":null,"mission":null,"orbit_class":"UNKNOWN","rcs_meters":0.063,"size_class":null,"mass_kg":null,"dimensions":null,"purposes":["tech_demo"],"wikipedia_slug":null,"has_3d_model":false,"image_url":null,"decayed_at":null,"tle_current":{"epoch":"2026-05-24T23:35:54.000096Z","epoch_age_seconds":80017,"freshness":"FRESH","line1":"1 40032U 14033Y   26144.98326389  .00006124  00000+0  33357-3 0  9991","line2":"2 40032  98.0755 140.4260 0005750 249.4855 110.5758 15.14810965649158","mean_motion":15.14810965,"eccentricity":0.000575,"inclination_deg":98.0755,"raan_deg":140.426,"arg_perigee_deg":249.4855,"mean_anomaly_deg":110.5758,"bstar":0.00033357,"rev_number":64915,"period_min":95.061366287377,"perigee_km":517.5851923319,"apogee_km":525.51983527277,"semimajor_km":6899.6895138023,"source":"CELESTRAK","updated_at":"2026-05-25T13:38:25.521822Z"}}}